www.pogodaiklimat.ru

Погода и климат >> Архив погоды >> Россия >> Коми >> Петрунь


АРХИВ ПОГОДЫ в Петруни

Время (UTC), дата Ветер
(напр.,м/с)
 
Видим.   Явления Облачность Т
(С)
Тd
(С)
f
(%)
Тe
(С)
Тes
(С)
Комфортность P
(гПа)
Po
(гПа)
Тmin
(С)
Tmax
(С)
R
(мм)
R24
(мм)
S
(см)
21 18.08 штиль 0 800 м туман ясно +5.3 +4.9 97 +4 +4 1027.6 1019.8
00 19.08 СВ 1 800 м туман ясно +3.3 +3.0 98 +2 +2 1028.5 1020.7
03 19.08 СВ 1 900 м туман ясно +6.3 +6.0 98 +5 +7 1029.4 1021.6 +3.0
06 19.08 н/о
09 19.08 ЮВ 2 50 км 3/1 600 м
[Cu hum Ci fib]
+18.6 +10.0 57 +20 +26 1028.5 1021.1
12 19.08 В 2 60 км 3/0
[Ci fib]
+19.1 +7.8 48 +20 +23 1027.8 1020.4
15 19.08 В 1 50 км 1/0
[Ci fib]
+16.1 +10.4 69 +17 +17 1027.2 1019.8 +19.3
18 19.08 В 2 45 км ясно +10.1 +8.7 91 +9 +9 1027.1 1019.5
21 19.08 В 3 40 км ясно +9.6 +7.6 87 +7 +7 1024.3 1018.7
00 20.08 ЮВ 3 35 км 1/0
[Ci fib]
+9.9 +7.9 87 +8 +8 1026.0 1018.4
03 20.08 ЮВ 2 45 км 1/0
[Ci fib]
+14.6 +10.0 74 +14 +16 1026.1 1018.6 +7.8
06 20.08 ЮВ 3 50 км ясно +19.7 +10.5 55 +21 +26 комфорт 1025.6 1018.2
09 20.08 ЮВ 3 55 км 1/0
[Ac As]
+22.0 +6.3 36 +23 +28 комфорт 1024.2 1016.9
12 20.08 ЮВ 2 60 км 1/0
[Ci fib]
+22.4 +7.3 38 +23 +26 комфорт 1023.4 1016.1
15 20.08 В 3 50 км ясно +18.5 +11.1 62 +19 +19 1023.1 1015.8 +22.7
18 20.08 ЮВ 3 45 км 1/0
[Ac As]
+14.2 +9.9 75 +13 +13 1023.6 1016.1
21 20.08 ЮВ 2 35 км 3/0
[Ac lent]
+12.2 +9.0 81 +11 +11 1023.6 1016.0
00 21.08 ЮВ 2 40 км 4/0
[Ac lent Ci fib]
+10.0 +8.2 89 +8 +8 1023.7 1016.1
03 21.08 ЮВ 1 45 км 4/0
[Ci sp]
+13.4 +9.5 77 +14 +16 1023.3 1015.8 +9.9
06 21.08 ЮВ 2 55 км 8/0
[Ac As Ci]
+20.5 +7.5 43 +22 +27 комфорт 1022.1 1014.8
09 21.08 З 3 50 км 9/0
[Ac As Cs]
+20.9 +10.8 52 +23 +27 комфорт 1020.6 1013.3
12 21.08 Ю 1 45 км 9/0
[Ac As Cs]
+22.1 +9.4 44 +24 +26 комфорт 1019.1 1011.9
15 21.08 штиль 0 40 км 9/0
[Ac As Ci fib]
+17.7 +14.3 80 +18 +18 1017.8 1010.5 +22.3
18 21.08 ЮВ 1 35 км 9/0
[Ac lent Cs]
+15.9 +11.4 75 +17 +17 1016.5 1009.1
21 21.08 Ю 2 40 км 9/0
[Ac lent]
+14.9 +11.9 82 +15 +15 1015.3 1007.9
00 22.08 ЮЗ 2 7000 м слаб. ливневой дождь 9/6 800 м
[Cb cap Ac lent]
+14.5 +13.7 95 +14 +14 1014.4 1007.0
03 22.08 З 2 3200 м ливневой дождь 10/10 720 м
[Cb cap]
+13.9 +13.5 97 +13 +13 1014.8 1007.4 +13.9 3
06 22.08 З 3 29 км в посл. час ливневой дождь 9/9 570 м
[Cb cap]
+14.2 +12.9 92 +13 +14 1015.4 1008.0 +13.7
09 22.08 З 4 40 км 8/5 600 м
[Cb cap Ci sp]
+17.2 +12.6 74 +17 +19 1015.9 1008.5
12 22.08 ЮЗ 3 7000 м слаб. ливневой дождь 8/4 600 м
[Cb cap Ac cuf]
+16.3 +13.3 82 +16 +17 1015.6 1008.2
15 22.08 В 1 35 км {ливн. осадки} 5/1 600 м
[Cb cap Ac cuf Ci fib]
+16.0 +12.3 79 +17 +17 1015.3 1007.9 +18.7 2
18 22.08 штиль 0 28 км в посл. час ливневой дождь 8/3 600 м
[Cb cap Ac As]
+12.6 +11.8 95 +12 +12 1014.6 1007.2
21 22.08 В 1 24 км местами туман поземный 9/0
[Ac lent Ci sp]
+8.9 +8.4 97 +8 +8 1013.7 1006.2
00 23.08 ЮВ 1 29 км 8/0
[Ac As Ci sp]
+10.7 +9.9 95 +10 +10 1011.9 1004.4
03 23.08 В 1 30 км 9/0
[Ac As Cs]
+13.2 +11.6 90 +13 +14 1010.1 1002.7 +8.8 0.0
06 23.08 СВ 3 35 км 10/0
[Ac As Cs]
+15.4 +12.5 83 +15 +17 1007.9 1000.6
09 23.08 В 3 40 км 10/0
[Ac As]
+16.4 +12.6 78 +16 +18 1006.3 999.1
12 23.08 В 3 9000 м слаб. дождь 10/0
[As op]
+14.8 +11.8 82 +14 +14 1005.8 998.5
15 23.08 СВ 2 7000 м слаб. дождь 10/1 300 м
[Frnb As op]
+13.0 +11.4 90 +12 +12 1006.1 998.8 +16.4 0.5
18 23.08 С 1 28 км в посл. час дождь 10/0
[Ac As]
+10.7 +10.1 96 +10 +10 1006.3 998.9
21 23.08 С 3 29 км 9/0
[Ac As]
+10.5 +9.9 96 +8 +8 1007.2 999.8
00 24.08 С 4 26 км 10/10 210 м
[St]
+9.8 +9.3 97 +7 +7 1008.7 1001.2
03 24.08 СЗ 3 24 км 10/10 150 м
[St]
+10.6 +10.1 97 +8 +8 1010.6 1003.1 +9.3 1
06 24.08 СЗ 3 27 км 10/10 210 м
[St]
+10.7 +9.7 94 +9 +9 1011.8 1004.3
09 24.08 СЗ 4 29 км 10/10 270 м
[St]
+10.1 +8.5 90 +7 +7 1012.8 1005.3
12 24.08 СЗ 3 30 км 10/10 330 м
[St]
+10.6 +8.6 87 +9 +9 1013.5 1006.0
15 24.08 З 2 8000 м слаб. морось 10/10 360 м
[St]
+10.1 +9.2 94 +8 +8 1013.7 1006.2 +11.1 0.0
18 24.08 СЗ 3 26 км {морось} 10/10 240 м
[St]
+9.8 +8.8 93 +7 +7 1013.7 1006.2
21 24.08 С 3 5000 м слаб. дождь {морось} 10/10 210 м
[Frnb Ns]
+8.3 +7.9 97 +5 +5 1013.5 1006.0
00 25.08 СВ 2 7000 м ливневой снег 10/10 300 м
[]
+5.9 +5.2 95 +3 +3 1014.6 1007.0
03 25.08 СВ 1 30 км {морось} 10/10 1080 м
[Sc]
+6.2 +5.0 92 +5 +5 1015.6 1007.9 +5.7 2
06 25.08 СВ 1 35 км {морось} 10/10 420 м
[St]
+7.2 +4.6 84 +6 +6 1015.9 1008.4
09 25.08 С 2 35 км 10/10 960 м
[Sc]
+8.4 +4.8 78 +7 +7 1016.2 1008.7
12 25.08 С 3 35 км 9/9 1140 м
[Sc]
+8.9 +2.7 65 +7 +7 1016.9 1009.4
15 25.08 В 1 35 км 10/10 1170 м
[Sc]
+7.2 +3.5 77 +6 +6 1017.5 1009.9 +9.6
18 25.08 Ю 1 35 км 10/10 1080 м
[Sc]
+6.7 +2.9 77 +6 +6 1017.6 1010.0

 

Местоположение метеостанции Петрунь (Коми, Россия): широта 66.43 долгота 60.77 высота над уровнем моря 62 м.

В архиве по умолчанию представлена погода в Петруни за последнюю неделю. Архивные данные за месяц целиком и за предыдущие месяцы, начиная с января 2011 года, Вы можете получить, выбрав интересующий диапазон дат из раскрывающегося списка и нажав кнопку "Ввод!".


*Определитесь, кто Вы:
робот инопланетянин человек

Внимание! Время в таблицах - всемирное. Для получения местного времени необходимо прибавить поправку, которая равна 3 ч.

Смотрите также архив погоды в соседних городах и на ближайших метеорологических станциях:

Погода в Харуте (Ненецкий АО, Россия) (72 км)
Погода в Усинске (Коми, Россия) (159 км)
Погода в Елецкой (Коми, Россия) (160 км)
Погода в Хорей-Вере (Ненецкий АО, Россия) (163 км)
Погода в Усть-Усе (Коми, Россия) (180 км)
Погода в Воркуте (Коми, Россия) (182 км)
Погода в Мужах (Ямало-Ненецкий АО, Россия) (214 км)
Погода в Печоре (Коми, Россия) (222 км)
Погода в Харпе (Ямало-Ненецкий АО, Россия) (225 км)
Погода в Саранпауле (Ханты-Мансийский АО, Россия) (239 км)

Пояснения к столбцам:

Ветер - указаны скорость ветра в м/с - средняя за 10 мин, порывы в срок и между сроками (в фигурных скобках) и направление, откуда дует ветер: С - северный, СВ - северо-восточный, В - восточный, ЮВ - юго-восточный, Ю - южный, ЮЗ - юго-западный, З - западный, СЗ - северо-западный.
Видимость - горизонтальная дальность видимости в метрах или километрах. При видимости от 1 до 10 км при отсутствии осадков обычно наблюдается дымка, при ухудшении видимости до 1 км и менее - туман. В сухую погоду видимость может ухудшаться дымом, пылью или мглою.
Явления - указаны атмосферные явления, наблюдавшиеся в срок или в последний час перед сроком; фигурными скобками обозначены явления, наблюдавшиеся между сроками (за 1-3 часа до срока); квадратными скобками обозначены град или гололедные отложения с указанием их диаметра в мм.
Облачность - указаны через наклонную черту общая и нижняя облачность в баллах и высота нижней границы облаков в метрах; квадратными скобками обозначены формы облаков: Ci - перистые, Cs - перисто-слоистые, Cc - перисто-кучевые, Ac - высококучевые, As - высокослоистые, Sc - слоисто-кучевые, Ns - слоисто-дождевые, Cu - кучевые, Cb - кучево-дождевые. Подробнее классификацию облаков см. в Атласе облаков (PDF).
T - Температура воздуха - температура, измеренная на высоте 2 м над землей.
Td - Температура точки росы - температура, при понижении до которой содержащийся в воздухе водяной пар достигнет насыщения.
f - Относительная влажность воздуха - влажноcть воздуха, измеренная на высоте 2 м над землей.
Te - Эффективная температура - температура, которую ощущает одетый по сезону человек в тени. Характеристика душности погоды. При расчете учитывается влияние влажности воздуха и скорости ветра на теплоощущения человека.
Tes - Эффективная температура на солнце - температура, которую ощущает человек, с поправкой на солнечный нагрев. Характеристика знойности погоды. Зависит от высоты солнца над горизонтом, облачности и скорости ветра. Ночью, в пасмурную погоду, а также при ветре 12 м/с и более поправка равна нулю.
P - Атмосферное давление - приведенное к уровню моря атмосферное давление.
Po - Атмосферное давление - измеренное на уровне метеостанции атмосферное давление.
Tmin - Минимальная температура - минимум температуры воздуха на высоте 2 м над землей.
Tmax - Максимальная температура - максимум температуры воздуха на высоте 2 м над землей.
R - Количество осадков - Количество выпавших осадков за период времени, мм. При наведении курсора мыши на число - период времени, за который выпало указанное количество осадков.
R24 - Количество осадков - Количество выпавших осадков за 24 часа, мм.
S - Снежный покров - Высота снежного покрова, см. При наведении курсора мыши на число - состояние снежного покрова и степень покрытия местности в баллах.